Location: ?
(35.4214°N, 139.3011°E)
Time: 21:56:34
(UTC+00:00)

NOSS 0 Rocket - Pass Details

Date: 14 July 2020
Orbit: 934 x 955 km, 70.0° (Epoch: 10 August)

Event Time Altitude Azimuth Distance (km) Brightness Sun altitude
Rises 10:28:40 0° 185° (S) 3,573 6.7 -6.1°
Reaches altitude 10° 10:31:15 10° 179° (S) 2,634 6.0 -6.6°
Maximum altitude 10:37:05 48° 107° (ESE) 1,201 4.1 -7.6°
Drops below altitude 10° 10:42:57 10° 34° (NE) 2,657 6.3 -8.6°
Sets 10:45:34 0° 29° (NNE) 3,608 7.1 -9.0°
